Regional Weather Roundup
Issued by NWS Goodland, KS

Home | Current Version | Previous Version | Text Only | Print | Product List | Glossary Off
Versions: 1 2 3 4 5 6 7 8 9 10 11 12 13 14 15 16 17 18 19 20 21 22 23 24 25 26 27 28 29 30 31 32 33 34 35 36 37 38 39 40 41 42 43 44 45 46 47 48 49 50

000
ASUS43 KGLD 031459
RWRGLD

GOODLAND FORECAST AREA HOURLY WEATHER ROUNDUP
NATIONAL WEATHER SERVICE GOODLAND KS
800 AM MST TUE MAR 03 2015

...OFFICIAL OBSERVATIONS...

CITY           SKY/WX    TMP DP  RH WIND       PRES   REMARKS
GOODLAND KS    CLOUDY    32  29  88 N17G23    29.82R
HILL CITY KS   PTSUNNY   33  26  75 NW15G21   29.82R
IMPERIAL NEB     N/A     25  15  66 N31G41    29.86R WCI   8
MCCOOK NEB     CLOUDY    34  25  69 N24G36    29.82R
AKRON CO       CLOUDY    22  20  92 N24G31    29.83R WCI   5
BURLINGTON CO  CLOUDY    31  28  89 N18G24    29.80R WCI  19
LIMON CO       FRZ RAIN  26  25  96 N13       29.82R VSB 3/4 WCI  15
$$

...UNOFFICIAL OBSERVATIONS...

CITY           SKY/WX    TMP DP  RH WIND       PRES   REMARKS
COLBY KS       CLOUDY    34  32  93 NW15G23   29.82R FOG
GOVE KS          N/A     34  32  92 MISG        N/A
LENORA KS        N/A     30  32 100 S18         N/A  WCI  18
SHARON SPRINGS   N/A     32  30  92 NE12G20     N/A
KIT CARSON CO    N/A     29  24  81 MISG        N/A
YUMA CO          N/A     26  23  88 N20G26      N/A  WCI  12
$$


USA.gov is the U.S. government's official web portal to all federal, state and local government web resources and services.